,,PA_Meas_PMT16A,,PR_Meas_QMR101_102,,RH_Meas_QMH101,,SR_Meas_QMS101,,TA_Meas_QMH101,,GenWind,,GenWind,
time,status,PA,status,PR,status,RH,status,SR,status,TA,status,DirAvg,status,SpdAvg,
2012-06-26, 00:00:04,VALID,917.913,VALID,0,VALID,94.6676,VALID,0,VALID,21.0486,VALID,313,VALID,0,
2012-06-26, 00:01:04,VALID,917.956,VALID,0,VALID,94.6523,VALID,0,VALID,21.0486,VALID,313,VALID,0,
2012-06-26, 00:02:04,VALID,917.956,VALID,0,VALID,94.3245,VALID,0,VALID,20.9901,VALID,313,VALID,0,
2012-06-26, 00:03:04,VALID,917.956,VALID,0,VALID,94.3931,VALID,0,VALID,20.9917,VALID,313,VALID,0,
2012-06-26, 00:04:04,VALID,917.952,VALID,0,VALID,94.599,VALID,0,VALID,21.0112,VALID,313,VALID,0,
2012-06-26, 00:05:04,VALID,917.93,VALID,0,VALID,94.3321,VALID,0,VALID,20.9722,VALID,313,VALID,0,
2012-06-26, 00:06:04,VALID,917.914,VALID,0,VALID,94.477,VALID,0,VALID,20.9527,VALID,313,VALID,0,
2012-06-26, 00:07:04,VALID,917.87,VALID,0,VALID,94.4694,VALID,0,VALID,20.9527,VALID,313,VALID,0,
2012-06-26, 00:08:04,VALID,917.847,VALID,0,VALID,94.538,VALID,0,VALID,20.9527,VALID,313,VALID,0,
2012-06-26, 00:09:04,VALID,917.855,VALID,0,VALID,94.6218,VALID,0,VALID,20.9331,VALID,313,VALID,0,
2012-06-26, 00:10:04,VALID,917.851,VALID,0,VALID,94.7057,VALID,0,VALID,20.9316,VALID,313,VALID,0,
2012-06-26, 00:11:04,VALID,917.837,VALID,0,VALID,94.7133,VALID,0,VALID,20.9527,VALID,313,VALID,0,
2012-06-26, 00:12:04,VALID,917.848,VALID,0,VALID,94.7819,VALID,0,VALID,20.9527,VALID,313,VALID,0,
2012-06-26, 00:13:04,VALID,917.846,VALID,0,VALID,94.9801,VALID,0,VALID,20.9511,VALID,313,VALID,0,
2012-06-26, 00:14:04,VALID,917.832,VALID,0,VALID,94.9801,VALID,0,VALID,20.9722,VALID,313,VALID,0,
2012-06-26, 00:15:04,VALID,917.794,VALID,0,VALID,94.8887,VALID,0,VALID,20.9331,VALID,313,VALID,0,
2012-06-26, 00:16:04,VALID,917.787,VALID,0,VALID,94.7896,VALID,0,VALID,20.8941,VALID,313,VALID,0,
2012-06-26, 00:17:04,VALID,917.753,VALID,0,VALID,95.003,VALID,0,VALID,20.8535,VALID,313,VALID,0,
2012-06-26, 00:18:04,VALID,917.75,VALID,0,VALID,95.0335,VALID,0,VALID,20.8535,VALID,313,VALID,0,
2012-06-26, 00:19:04,VALID,917.767,VALID,0,VALID,95.1021,VALID,0,VALID,20.8356,VALID,313,VALID,0,
2012-06-26, 00:20:04,VALID,917.795,VALID,0,VALID,95.1402,VALID,0,VALID,20.8356,VALID,313,VALID,0,
2012-06-26, 00:21:04,VALID,917.783,VALID,0,VALID,95.2393,VALID,0,VALID,20.834,VALID,313,VALID,0,
2012-06-26, 00:22:04,VALID,917.807,VALID,0,VALID,95.3156,VALID,0,VALID,20.8941,VALID,313,VALID,0,
2012-06-26, 00:23:04,VALID,917.804,VALID,0,VALID,95.3079,VALID,0,VALID,20.9136,VALID,313,VALID,0,
2012-06-26, 00:24:04,VALID,917.753,VALID,0,VALID,95.3384,VALID,0,VALID,20.9331,VALID,313,VALID,0,
2012-06-26, 00:25:04,VALID,917.756,VALID,0,VALID,95.3994,VALID,0,VALID,20.9722,VALID,313,VALID,0,
2012-06-26, 00:26:04,VALID,917.764,VALID,0,VALID,95.1936,VALID,0,VALID,20.9722,VALID,313,VALID,0,
2012-06-26, 00:27:04,VALID,917.716,VALID,0,VALID,95.0945,VALID,0,VALID,20.9933,VALID,313,VALID,0,
2012-06-26, 00:28:04,VALID,917.731,VALID,0,VALID,95.186,VALID,0,VALID,21.0112,VALID,313,VALID,0,
2012-06-26, 00:29:04,VALID,917.642,VALID,0,VALID,95.1097,VALID,0,VALID,21.0323,VALID,313,VALID,0,
2012-06-26, 00:30:04,VALID,917.627,VALID,0,VALID,95.0945,VALID,0,VALID,21.0518,VALID,313,VALID,0,
2012-06-26, 00:31:04,VALID,917.609,VALID,0,VALID,94.9954,VALID,0,VALID,21.0307,VALID,313,VALID,0,
2012-06-26, 00:32:04,VALID,917.605,VALID,0,VALID,94.9649,VALID,0,VALID,21.0502,VALID,313,VALID,0,
2012-06-26, 00:33:04,VALID,917.565,VALID,0,VALID,94.8048,VALID,0,VALID,21.0518,VALID,313,VALID,0,
2012-06-26, 00:34:04,VALID,917.548,VALID,0,VALID,94.6676,VALID,0,VALID,21.0502,VALID,313,VALID,0,
2012-06-26, 00:35:04,VALID,917.529,VALID,0,VALID,94.4694,VALID,0,VALID,20.9722,VALID,313,VALID,0,
2012-06-26, 00:36:04,VALID,917.558,VALID,0,VALID,94.66,VALID,0,VALID,20.9331,VALID,313,VALID,0,
2012-06-26, 00:37:04,VALID,917.531,VALID,0,VALID,94.82,VALID,0,VALID,20.9136,VALID,313,VALID,0,
2012-06-26, 00:38:04,VALID,917.531,VALID,0,VALID,95.0411,VALID,0,VALID,20.9152,VALID,313,VALID,0,
2012-06-26, 00:39:04,VALID,917.539,VALID,0,VALID,95.1555,VALID,0,VALID,20.9136,VALID,313,VALID,0,
2012-06-26, 00:40:04,VALID,917.5,VALID,0,VALID,95.2851,VALID,0,VALID,20.912,VALID,313,VALID,0,
2012-06-26, 00:41:04,VALID,917.508,VALID,0,VALID,95.3156,VALID,0,VALID,20.912,VALID,313,VALID,0,
2012-06-26, 00:42:04,VALID,917.514,VALID,0,VALID,95.3079,VALID,0.107441,VALID,20.9331,VALID,313,VALID,0,
2012-06-26, 00:43:04,VALID,917.431,VALID,0,VALID,95.2546,VALID,0.107441,VALID,20.912,VALID,313,VALID,0,
2012-06-26, 00:44:04,VALID,917.413,VALID,0,VALID,95.3308,VALID,0,VALID,20.9136,VALID,313,VALID,0,
2012-06-26, 00:45:04,VALID,917.393,VALID,0,VALID,95.3461,VALID,0,VALID,20.9136,VALID,313,VALID,0,
2012-06-26, 00:46:04,VALID,917.354,VALID,0,VALID,95.3613,VALID,0,VALID,20.8925,VALID,313,VALID,0,
2012-06-26, 00:47:04,VALID,917.32,VALID,0,VALID,95.4071,VALID,0.107441,VALID,20.8941,VALID,313,VALID,0,
2012-06-26, 00:48:04,VALID,917.3,VALID,0,VALID,95.4528,VALID,0.107441,VALID,20.873,VALID,313,VALID,0,
2012-06-26, 00:49:04,VALID,917.272,VALID,0,VALID,95.5062,VALID,0.107441,VALID,20.873,VALID,313,VALID,0,
2012-06-26, 00:50:04,VALID,917.255,VALID,0,VALID,95.5595,VALID,0.107441,VALID,20.8925,VALID,313,VALID,0,
2012-06-26, 00:51:04,VALID,917.246,VALID,0,VALID,95.6205,VALID,0,VALID,20.912,VALID,313,VALID,0,
2012-06-26, 00:52:04,VALID,917.23,VALID,0,VALID,95.6891,VALID,0,VALID,20.9527,VALID,313,VALID,0,
2012-06-26, 00:53:04,VALID,917.209,VALID,0,VALID,95.6205,VALID,0.107441,VALID,20.9331,VALID,313,VALID,0,
2012-06-26, 00:54:04,VALID,917.205,VALID,0,VALID,95.6357,VALID,0,VALID,20.9331,VALID,313,VALID,0,
2012-06-26, 00:55:04,VALID,917.201,VALID,0,VALID,95.6662,VALID,0,VALID,20.9331,VALID,313,VALID,0,
2012-06-26, 00:56:04,VALID,917.185,VALID,0,VALID,95.6815,VALID,0,VALID,20.8941,VALID,313,VALID,0,
2012-06-26, 00:57:04,VALID,917.214,VALID,0,VALID,95.7272,VALID,0,VALID,20.8941,VALID,313,VALID,0,
2012-06-26, 00:58:04,VALID,917.188,VALID,0,VALID,95.773,VALID,0,VALID,20.8535,VALID,313,VALID,0,
2012-06-26, 00:59:04,VALID,917.214,VALID,0,VALID,95.7501,VALID,0,VALID,20.8145,VALID,313,VALID,0,
2012-06-26, 01:00:04,VALID,917.206,VALID,0,VALID,95.773,VALID,0,VALID,20.7755,VALID,313,VALID,0,
2012-06-26, 01:01:04,VALID,917.222,VALID,0,VALID,95.8263,VALID,0,VALID,20.7576,VALID,313,VALID,0,
2012-06-26, 01:02:04,VALID,917.255,VALID,0,VALID,95.9331,VALID,0.107441,VALID,20.7576,VALID,313,VALID,0,
2012-06-26, 01:03:04,VALID,917.255,VALID,0,VALID,96.0017,VALID,0,VALID,20.7381,VALID,313,VALID,0,
2012-06-26, 01:04:04,VALID,917.282,VALID,0,VALID,96.0627,VALID,0,VALID,20.7576,VALID,313,VALID,0,
2012-06-26, 01:05:04,VALID,917.29,VALID,0,VALID,96.055,VALID,0,VALID,20.7381,VALID,313,VALID,0,
2012-06-26, 01:06:04,VALID,917.284,VALID,0,VALID,96.1008,VALID,0,VALID,20.717,VALID,313,VALID,0,
2012-06-26, 01:07:04,VALID,917.249,VALID,0,VALID,96.1465,VALID,0,VALID,20.7185,VALID,313,VALID,0,
2012-06-26, 01:08:04,VALID,917.246,VALID,0,VALID,96.1694,VALID,0,VALID,20.699,VALID,313,VALID,0,
2012-06-26, 01:09:04,VALID,917.202,VALID,0,VALID,96.0932,VALID,0,VALID,20.66,VALID,313,VALID,0,
2012-06-26, 01:10:04,VALID,917.187,VALID,0,VALID,96.0017,VALID,0,VALID,20.6015,VALID,313,VALID,0,
2012-06-26, 01:11:04,VALID,917.185,VALID,0,VALID,95.9331,VALID,0,VALID,20.5235,VALID,313,VALID,0,
2012-06-26, 01:12:04,VALID,917.185,VALID,0,VALID,95.9712,VALID,0,VALID,20.4845,VALID,313,VALID,0,
2012-06-26, 01:13:04,VALID,917.183,VALID,0,VALID,95.9941,VALID,0,VALID,20.465,VALID,313,VALID,0,
2012-06-26, 01:14:04,VALID,917.176,VALID,0,VALID,96.0169,VALID,0.107441,VALID,20.4845,VALID,313,VALID,0,
2012-06-26, 01:15:04,VALID,917.184,VALID,0,VALID,95.9788,VALID,0,VALID,20.465,VALID,313,VALID,0,
2012-06-26, 01:16:04,VALID,917.184,VALID,0,VALID,95.9254,VALID,0,VALID,20.4259,VALID,313,VALID,0,
2012-06-26, 01:17:04,VALID,917.181,VALID,0,VALID,95.9712,VALID,0.107441,VALID,20.4259,VALID,313,VALID,0,
2012-06-26, 01:18:04,VALID,917.165,VALID,0,VALID,96.0703,VALID,0,VALID,20.4454,VALID,313,VALID,0,
2012-06-26, 01:19:04,VALID,917.158,VALID,0,VALID,96.1236,VALID,0,VALID,20.465,VALID,313,VALID,0,
2012-06-26, 01:20:04,VALID,917.15,VALID,0,VALID,96.2609,VALID,0,VALID,20.5235,VALID,313,VALID,0,
2012-06-26, 01:21:04,VALID,917.173,VALID,0,VALID,96.2914,VALID,0,VALID,20.543,VALID,313,VALID,0,
2012-06-26, 01:22:04,VALID,917.183,VALID,0,VALID,96.3371,VALID,0.107441,VALID,20.5625,VALID,313,VALID,0,
2012-06-26, 01:23:04,VALID,917.172,VALID,0,VALID,96.4362,VALID,0,VALID,20.6015,VALID,313,VALID,0,
2012-06-26, 01:24:04,VALID,917.155,VALID,0,VALID,96.4896,VALID,0,VALID,20.621,VALID,313,VALID,0,
2012-06-26, 01:25:04,VALID,917.131,VALID,0,VALID,96.4972,VALID,0,VALID,20.66,VALID,313,VALID,0,
2012-06-26, 01:26:04,VALID,917.107,VALID,0,VALID,96.4133,VALID,0,VALID,20.6405,VALID,313,VALID,0,
2012-06-26, 01:27:04,VALID,917.123,VALID,0,VALID,96.3142,VALID,0,VALID,20.6015,VALID,313,VALID,0,
2012-06-26, 01:28:04,VALID,917.108,VALID,0,VALID,96.2914,VALID,0,VALID,20.582,VALID,313,VALID,0,
2012-06-26, 01:29:04,VALID,917.125,VALID,0,VALID,96.1846,VALID,0,VALID,20.543,VALID,313,VALID,0,
2012-06-26, 01:30:04,VALID,917.127,VALID,0,VALID,96.1465,VALID,0,VALID,20.504,VALID,313,VALID,0,
2012-06-26, 01:31:04,VALID,917.123,VALID,0,VALID,96.0855,VALID,0,VALID,20.5055,VALID,313,VALID,0,
2012-06-26, 01:32:04,VALID,917.132,VALID,0,VALID,96.1541,VALID,0,VALID,20.4845,VALID,313,VALID,0,
2012-06-26, 01:33:04,VALID,917.135,VALID,0,VALID,96.2228,VALID,0.107441,VALID,20.543,VALID,313,VALID,0,
2012-06-26, 01:34:04,VALID,917.143,VALID,0,VALID,96.2609,VALID,0,VALID,20.5625,VALID,313,VALID,0,
2012-06-26, 01:35:04,VALID,917.151,VALID,0,VALID,96.3219,VALID,0,VALID,20.582,VALID,313,VALID,0,
2012-06-26, 01:36:04,VALID,917.159,VALID,0,VALID,96.3752,VALID,0,VALID,20.6405,VALID,313,VALID,0,
2012-06-26, 01:37:04,VALID,917.189,VALID,0,VALID,96.4286,VALID,0,VALID,20.6795,VALID,313,VALID,0,
2012-06-26, 01:38:04,VALID,917.169,VALID,0,VALID,96.4286,VALID,0.107441,VALID,20.7185,VALID,313,VALID,0,
2012-06-26, 01:39:04,VALID,917.179,VALID,0,VALID,96.3981,VALID,0,VALID,20.7381,VALID,313,VALID,0,
2012-06-26, 01:40:04,VALID,917.185,VALID,0,VALID,96.2228,VALID,0,VALID,20.699,VALID,313,VALID,0,
2012-06-26, 01:41:04,VALID,917.123,VALID,0,VALID,96.0474,VALID,0,VALID,20.66,VALID,313,VALID,0,
2012-06-26, 01:42:04,VALID,917.118,VALID,0,VALID,95.7654,VALID,0.107441,VALID,20.543,VALID,313,VALID,0,
2012-06-26, 01:43:04,VALID,917.099,VALID,0,VALID,95.651,VALID,0,VALID,20.504,VALID,313,VALID,0,
2012-06-26, 01:44:04,VALID,917.083,VALID,0,VALID,95.6967,VALID,0,VALID,20.465,VALID,313,VALID,0,
2012-06-26, 01:45:04,VALID,917.066,VALID,0,VALID,95.895,VALID,0,VALID,20.465,VALID,313,VALID,0,
2012-06-26, 01:46:04,VALID,917.08,VALID,0,VALID,96.055,VALID,0,VALID,20.504,VALID,313,VALID,0,
2012-06-26, 01:47:04,VALID,917.109,VALID,0,VALID,96.1313,VALID,0,VALID,20.504,VALID,313,VALID,0,
2012-06-26, 01:48:04,VALID,917.094,VALID,0,VALID,96.0474,VALID,0,VALID,20.465,VALID,313,VALID,0,
2012-06-26, 01:49:04,VALID,917.062,VALID,0,VALID,95.9712,VALID,0,VALID,20.4064,VALID,313,VALID,0,
2012-06-26, 01:50:04,VALID,917.06,VALID,0,VALID,96.0627,VALID,0,VALID,20.408,VALID,313,VALID,0,
2012-06-26, 01:51:04,VALID,917.078,VALID,0,VALID,96.0398,VALID,0,VALID,20.3674,VALID,313,VALID,0,
2012-06-26, 01:52:04,VALID,917.073,VALID,0,VALID,95.9483,VALID,0.107441,VALID,20.3284,VALID,313,VALID,0,
2012-06-26, 01:53:04,VALID,917.044,VALID,0,VALID,96.055,VALID,0,VALID,20.3089,VALID,313,VALID,0,
2012-06-26, 01:54:04,VALID,917.096,VALID,0,VALID,96.2304,VALID,0,VALID,20.3674,VALID,313,VALID,0,
2012-06-26, 01:55:04,VALID,917.112,VALID,0,VALID,96.2914,VALID,0,VALID,20.3869,VALID,313,VALID,0,
2012-06-26, 01:56:04,VALID,917.112,VALID,0,VALID,96.3676,VALID,0,VALID,20.4064,VALID,313,VALID,0,
2012-06-26, 01:57:04,VALID,917.096,VALID,0,VALID,96.4057,VALID,0,VALID,20.4454,VALID,313,VALID,0,
2012-06-26, 01:58:04,VALID,917.068,VALID,0,VALID,96.4667,VALID,0,VALID,20.465,VALID,313,VALID,0,
2012-06-26, 01:59:04,VALID,917.099,VALID,0,VALID,96.4286,VALID,0,VALID,20.4845,VALID,313,VALID,0,
2012-06-26, 02:00:04,VALID,917.088,VALID,0,VALID,96.4515,VALID,0,VALID,20.465,VALID,313,VALID,0,
2012-06-26, 02:01:04,VALID,917.09,VALID,0,VALID,96.5048,VALID,0,VALID,20.504,VALID,313,VALID,0,
2012-06-26, 02:02:04,VALID,917.083,VALID,0,VALID,96.6039,VALID,0,VALID,20.5625,VALID,313,VALID,0,
2012-06-26, 02:03:04,VALID,917.076,VALID,0,VALID,96.6344,VALID,0,VALID,20.621,VALID,313,VALID,0,
2012-06-26, 02:04:04,VALID,917.116,VALID,0,VALID,96.238,VALID,0.107441,VALID,20.5219,VALID,313,VALID,0,
2012-06-26, 02:05:04,VALID,917.094,VALID,0,VALID,96.0093,VALID,0,VALID,20.3869,VALID,313,VALID,0,
2012-06-26, 02:06:04,VALID,917.12,VALID,0,VALID,96.0474,VALID,0,VALID,20.3479,VALID,313,VALID,0,
2012-06-26, 02:07:04,VALID,917.101,VALID,0,VALID,96.2609,VALID,0,VALID,20.3674,VALID,313,VALID,0,
2012-06-26, 02:08:04,VALID,917.113,VALID,0,VALID,96.4133,VALID,0,VALID,20.4259,VALID,313,VALID,0,
2012-06-26, 02:09:04,VALID,917.139,VALID,0,VALID,96.5201,VALID,0.107441,VALID,20.504,VALID,313,VALID,0,
2012-06-26, 02:10:04,VALID,917.145,VALID,0,VALID,96.4133,VALID,0,VALID,20.5477,VALID,313,VALID,0,
2012-06-26, 02:11:04,VALID,917.142,VALID,0,VALID,96.2685,VALID,0,VALID,20.4665,VALID,313,VALID,0,
2012-06-26, 02:12:04,VALID,917.134,VALID,0,VALID,96.2228,VALID,0,VALID,20.4486,VALID,313,VALID,0,
2012-06-26, 02:13:04,VALID,917.158,VALID,0,VALID,96.2685,VALID,0,VALID,20.447,VALID,313,VALID,0,
2012-06-26, 02:14:04,VALID,917.14,VALID,0,VALID,96.299,VALID,0,VALID,20.4665,VALID,313,VALID,0,
2012-06-26, 02:15:04,VALID,917.144,VALID,0,VALID,96.3524,VALID,0,VALID,20.5055,VALID,313,VALID,0,
2012-06-26, 02:16:04,VALID,917.165,VALID,0,VALID,96.4057,VALID,0,VALID,20.5836,VALID,313,VALID,0,
2012-06-26, 02:17:04,VALID,917.174,VALID,0,VALID,96.4133,VALID,0,VALID,20.6015,VALID,313,VALID,0,
2012-06-26, 02:18:04,VALID,917.161,VALID,0,VALID,96.238,VALID,0,VALID,20.6226,VALID,313,VALID,0,
2012-06-26, 02:19:04,VALID,917.144,VALID,0,VALID,96.1236,VALID,0,VALID,20.6046,VALID,313,VALID,0,
2012-06-26, 02:20:04,VALID,917.19,VALID,0,VALID,95.9712,VALID,0,VALID,20.5641,VALID,313,VALID,0,
2012-06-26, 02:21:04,VALID,917.234,VALID,0,VALID,95.9026,VALID,0,VALID,20.5055,VALID,313,VALID,0,
2012-06-26, 02:22:04,VALID,917.19,VALID,0,VALID,96.0322,VALID,0,VALID,20.5461,VALID,313,VALID,0,
2012-06-26, 02:23:04,VALID,917.205,VALID,0,VALID,96.0932,VALID,0,VALID,20.5266,VALID,313,VALID,0,
2012-06-26, 02:24:04,VALID,917.227,VALID,0,VALID,96.1618,VALID,0,VALID,20.5445,VALID,313,VALID,0,
2012-06-26, 02:25:04,VALID,917.219,VALID,0,VALID,96.2304,VALID,0,VALID,20.5625,VALID,313,VALID,0,
2012-06-26, 02:26:04,VALID,917.191,VALID,0,VALID,96.3066,VALID,0,VALID,20.582,VALID,313,VALID,0,
2012-06-26, 02:27:04,VALID,917.194,VALID,0,VALID,96.36,VALID,0,VALID,20.621,VALID,313,VALID,0,
2012-06-26, 02:28:04,VALID,917.243,VALID,0,VALID,96.3676,VALID,0,VALID,20.621,VALID,313,VALID,0,
2012-06-26, 02:29:04,VALID,917.203,VALID,0,VALID,96.2761,VALID,0,VALID,20.6226,VALID,313,VALID,0,
2012-06-26, 02:30:04,VALID,917.2,VALID,0,VALID,96.3371,VALID,0,VALID,20.6405,VALID,313,VALID,0,
2012-06-26, 02:31:04,VALID,917.236,VALID,0,VALID,96.3066,VALID,0,VALID,20.621,VALID,352,VALID,0,
2012-06-26, 02:32:04,VALID,917.252,VALID,0,VALID,96.2837,VALID,0,VALID,20.621,VALID,352,VALID,0,
2012-06-26, 02:33:04,VALID,917.236,VALID,0,VALID,96.3752,VALID,0,VALID,20.621,VALID,352,VALID,0,
2012-06-26, 02:34:04,VALID,917.234,VALID,0,VALID,96.421,VALID,0,VALID,20.6405,VALID,352,VALID,0,
2012-06-26, 02:35:04,VALID,917.247,VALID,0,VALID,96.3676,VALID,0,VALID,20.6405,VALID,352,VALID,0,
2012-06-26, 02:36:04,VALID,917.219,VALID,0,VALID,96.3676,VALID,0,VALID,20.6405,VALID,352,VALID,0,
2012-06-26, 02:37:04,VALID,917.196,VALID,0,VALID,96.4438,VALID,0,VALID,20.6405,VALID,352,VALID,0,
2012-06-26, 02:38:04,VALID,917.198,VALID,0,VALID,96.421,VALID,0,VALID,20.6405,VALID,352,VALID,0,
2012-06-26, 02:39:04,VALID,917.16,VALID,0,VALID,96.4515,VALID,0,VALID,20.6811,VALID,352,VALID,0,
2012-06-26, 02:40:04,VALID,917.139,VALID,0,VALID,96.4743,VALID,0,VALID,20.6811,VALID,352,VALID,0,
2012-06-26, 02:41:04,VALID,917.122,VALID,0,VALID,96.4896,VALID,0,VALID,20.66,VALID,352,VALID,0,
2012-06-26, 02:42:04,VALID,917.133,VALID,0,VALID,96.5124,VALID,0.107441,VALID,20.6795,VALID,352,VALID,0,
2012-06-26, 02:43:04,VALID,917.106,VALID,0,VALID,96.5201,VALID,0,VALID,20.6795,VALID,352,VALID,0,
2012-06-26, 02:44:04,VALID,917.103,VALID,0,VALID,96.5658,VALID,0,VALID,20.699,VALID,352,VALID,0,
2012-06-26, 02:45:04,VALID,917.107,VALID,0,VALID,96.5582,VALID,0,VALID,20.699,VALID,352,VALID,0,
2012-06-26, 02:46:04,VALID,917.105,VALID,0,VALID,96.5277,VALID,0,VALID,20.699,VALID,352,VALID,0,
2012-06-26, 02:47:04,VALID,917.087,VALID,0,VALID,96.5506,VALID,0,VALID,20.699,VALID,352,VALID,0,
2012-06-26, 02:48:04,VALID,917.078,VALID,0,VALID,96.5429,VALID,0,VALID,20.6795,VALID,352,VALID,0,
2012-06-26, 02:49:04,VALID,917.067,VALID,0,VALID,96.5429,VALID,0,VALID,20.7006,VALID,352,VALID,0,
2012-06-26, 02:50:04,VALID,917.087,VALID,0,VALID,96.5963,VALID,0,VALID,20.6795,VALID,352,VALID,0,
2012-06-26, 02:51:04,VALID,917.093,VALID,0,VALID,96.6344,VALID,0,VALID,20.7201,VALID,352,VALID,0,
2012-06-26, 02:52:04,VALID,917.099,VALID,0,VALID,96.6344,VALID,0,VALID,20.7185,VALID,352,VALID,0,
2012-06-26, 02:53:04,VALID,917.063,VALID,0,VALID,96.6649,VALID,0,VALID,20.7396,VALID,352,VALID,0,
2012-06-26, 02:54:04,VALID,917.057,VALID,0,VALID,96.6497,VALID,0,VALID,20.7381,VALID,352,VALID,0,
2012-06-26, 02:55:04,VALID,917.058,VALID,0,VALID,96.642,VALID,0,VALID,20.7591,VALID,352,VALID,0,
2012-06-26, 02:56:04,VALID,917.049,VALID,0,VALID,96.6649,VALID,0,VALID,20.7576,VALID,352,VALID,0,
2012-06-26, 02:57:04,VALID,917.07,VALID,0,VALID,96.6573,VALID,0,VALID,20.7576,VALID,352,VALID,0,
2012-06-26, 02:58:04,VALID,917.046,VALID,0,VALID,96.6192,VALID,0,VALID,20.7381,VALID,352,VALID,0,
2012-06-26, 02:59:04,VALID,916.974,VALID,0,VALID,96.6115,VALID,0,VALID,20.7591,VALID,352,VALID,0,
2012-06-26, 03:00:04,VALID,917.008,VALID,0,VALID,96.5887,VALID,0,VALID,20.7185,VALID,352,VALID,0,
2012-06-26, 03:01:04,VALID,916.981,VALID,0,VALID,96.6192,VALID,0.107441,VALID,20.7185,VALID,352,VALID,0,
2012-06-26, 03:02:04,VALID,916.995,VALID,0,VALID,96.6192,VALID,0,VALID,20.7185,VALID,352,VALID,0,
2012-06-26, 03:03:04,VALID,916.992,VALID,0,VALID,96.6573,VALID,0,VALID,20.7381,VALID,352,VALID,0,
2012-06-26, 03:04:04,VALID,917.001,VALID,0,VALID,96.703,VALID,0,VALID,20.7576,VALID,352,VALID,0,
2012-06-26, 03:05:04,VALID,917.007,VALID,0,VALID,96.5887,VALID,0,VALID,20.7381,VALID,352,VALID,0,
2012-06-26, 03:06:04,VALID,916.976,VALID,0,VALID,96.5429,VALID,0,VALID,20.699,VALID,352,VALID,0,
2012-06-26, 03:07:04,VALID,916.976,VALID,0,VALID,96.5353,VALID,0,VALID,20.7006,VALID,352,VALID,0,
2012-06-26, 03:08:04,VALID,916.945,VALID,0,VALID,96.5963,VALID,0,VALID,20.6795,VALID,352,VALID,0,
2012-06-26, 03:09:04,VALID,916.95,VALID,0,VALID,96.5734,VALID,0,VALID,20.66,VALID,352,VALID,0,
2012-06-26, 03:10:04,VALID,916.911,VALID,0,VALID,96.5887,VALID,0.107441,VALID,20.6405,VALID,352,VALID,0,
2012-06-26, 03:11:04,VALID,916.887,VALID,0,VALID,96.6039,VALID,0.107441,VALID,20.621,VALID,352,VALID,0,
2012-06-26, 03:12:04,VALID,916.904,VALID,0,VALID,96.6497,VALID,0,VALID,20.621,VALID,352,VALID,0,
2012-06-26, 03:13:04,VALID,916.879,VALID,0,VALID,96.6573,VALID,0,VALID,20.5804,VALID,352,VALID,0,
2012-06-26, 03:14:04,VALID,916.869,VALID,0,VALID,96.7183,VALID,0.107441,VALID,20.5999,VALID,352,VALID,0,
2012-06-26, 03:15:04,VALID,916.88,VALID,0,VALID,96.7411,VALID,0,VALID,20.6405,VALID,352,VALID,0,
2012-06-26, 03:16:04,VALID,916.864,VALID,0,VALID,96.7793,VALID,0,VALID,20.6795,VALID,352,VALID,0,
2012-06-26, 03:17:04,VALID,916.897,VALID,0,VALID,96.7564,VALID,0.107441,VALID,20.678,VALID,352,VALID,0,
2012-06-26, 03:18:04,VALID,916.918,VALID,0,VALID,96.7564,VALID,0.107441,VALID,20.699,VALID,352,VALID,0,
2012-06-26, 03:19:04,VALID,916.938,VALID,0,VALID,96.7564,VALID,0,VALID,20.699,VALID,352,VALID,0,
2012-06-26, 03:20:04,VALID,916.972,VALID,0,VALID,96.764,VALID,0,VALID,20.678,VALID,352,VALID,0,
2012-06-26, 03:21:04,VALID,916.942,VALID,0,VALID,96.7488,VALID,0,VALID,20.7185,VALID,352,VALID,0,
2012-06-26, 03:22:04,VALID,916.947,VALID,0,VALID,96.7183,VALID,0,VALID,20.699,VALID,352,VALID,0,
2012-06-26, 03:23:04,VALID,916.97,VALID,0,VALID,96.764,VALID,0,VALID,20.699,VALID,352,VALID,0,
2012-06-26, 03:24:04,VALID,916.958,VALID,0,VALID,96.7564,VALID,0,VALID,20.7381,VALID,352,VALID,0,
2012-06-26, 03:25:04,VALID,916.938,VALID,0,VALID,96.7411,VALID,0,VALID,20.7381,VALID,352,VALID,0,
2012-06-26, 03:26:04,VALID,916.965,VALID,0,VALID,96.7335,VALID,0,VALID,20.7396,VALID,352,VALID,0,
2012-06-26, 03:27:04,VALID,916.954,VALID,0,VALID,96.7259,VALID,0.107441,VALID,20.717,VALID,352,VALID,0,
2012-06-26, 03:28:04,VALID,916.966,VALID,0,VALID,96.7259,VALID,0,VALID,20.7381,VALID,352,VALID,0,
2012-06-26, 03:29:04,VALID,916.938,VALID,0,VALID,96.7335,VALID,0,VALID,20.7576,VALID,352,VALID,0,
2012-06-26, 03:30:04,VALID,916.957,VALID,0,VALID,96.7259,VALID,0,VALID,20.7576,VALID,352,VALID,0,
2012-06-26, 03:31:04,VALID,916.962,VALID,0,VALID,96.764,VALID,0.107441,VALID,20.756,VALID,352,VALID,0,
2012-06-26, 03:32:04,VALID,916.946,VALID,0,VALID,96.7488,VALID,0.107441,VALID,20.7771,VALID,352,VALID,0,
2012-06-26, 03:33:04,VALID,916.935,VALID,0,VALID,96.7259,VALID,0.107441,VALID,20.7966,VALID,352,VALID,0,
2012-06-26, 03:34:04,VALID,916.94,VALID,0,VALID,96.6802,VALID,0,VALID,20.7771,VALID,352,VALID,0,
2012-06-26, 03:35:04,VALID,916.913,VALID,0,VALID,96.6725,VALID,0,VALID,20.7576,VALID,352,VALID,0,
2012-06-26, 03:36:04,VALID,916.873,VALID,0,VALID,96.6497,VALID,0,VALID,20.7576,VALID,352,VALID,0,
2012-06-26, 03:37:04,VALID,916.883,VALID,0,VALID,96.6344,VALID,0,VALID,20.7381,VALID,352,VALID,0,
2012-06-26, 03:38:04,VALID,916.874,VALID,0,VALID,96.6725,VALID,0,VALID,20.7365,VALID,352,VALID,0,
2012-06-26, 03:39:04,VALID,916.843,VALID,0,VALID,96.7107,VALID,0,VALID,20.7771,VALID,352,VALID,0,
2012-06-26, 03:40:04,VALID,916.82,VALID,0,VALID,96.6573,VALID,0,VALID,20.7771,VALID,352,VALID,0,
2012-06-26, 03:41:04,VALID,916.819,VALID,0,VALID,96.6192,VALID,0,VALID,20.7576,VALID,352,VALID,0,
2012-06-26, 03:42:04,VALID,916.792,VALID,0,VALID,96.642,VALID,0,VALID,20.7576,VALID,352,VALID,0,
2012-06-26, 03:43:04,VALID,916.808,VALID,0,VALID,96.642,VALID,0,VALID,20.7381,VALID,352,VALID,0,
2012-06-26, 03:44:04,VALID,916.836,VALID,0,VALID,96.6497,VALID,0.107441,VALID,20.7365,VALID,352,VALID,0,
2012-06-26, 03:45:04,VALID,916.831,VALID,0,VALID,96.6649,VALID,0,VALID,20.7576,VALID,352,VALID,0,
2012-06-26, 03:46:04,VALID,916.828,VALID,0,VALID,96.7183,VALID,0.107441,VALID,20.756,VALID,352,VALID,0,
2012-06-26, 03:47:04,VALID,916.851,VALID,0,VALID,96.7107,VALID,0.107441,VALID,20.7966,VALID,352,VALID,0,
2012-06-26, 03:48:04,VALID,916.86,VALID,0,VALID,96.6802,VALID,0.107441,VALID,20.7966,VALID,352,VALID,0,
2012-06-26, 03:49:04,VALID,916.858,VALID,0,VALID,96.642,VALID,0.107441,VALID,20.7755,VALID,352,VALID,0,
2012-06-26, 03:50:04,VALID,916.882,VALID,0,VALID,96.6497,VALID,0.107441,VALID,20.795,VALID,352,VALID,0,
2012-06-26, 03:51:04,VALID,916.917,VALID,0,VALID,96.6573,VALID,0.107441,VALID,20.8356,VALID,352,VALID,0,
2012-06-26, 03:52:04,VALID,916.916,VALID,0,VALID,96.6649,VALID,0.107441,VALID,20.8551,VALID,352,VALID,0,
2012-06-26, 03:53:04,VALID,916.931,VALID,0,VALID,96.5887,VALID,0,VALID,20.8356,VALID,352,VALID,0,
2012-06-26, 03:54:04,VALID,916.907,VALID,0,VALID,96.5658,VALID,0.107441,VALID,20.8161,VALID,352,VALID,0,
2012-06-26, 03:55:04,VALID,916.917,VALID,0,VALID,96.5353,VALID,0.107441,VALID,20.8356,VALID,352,VALID,0,
2012-06-26, 03:56:04,VALID,916.883,VALID,0,VALID,96.5658,VALID,0,VALID,20.795,INVALID,360,VALID,0,
2012-06-26, 03:57:04,VALID,916.867,VALID,0,VALID,96.5353,VALID,0,VALID,20.8356,VALID,352,VALID,0,
2012-06-26, 03:58:04,VALID,916.885,VALID,0,VALID,96.5201,VALID,0.107441,VALID,20.8145,VALID,352,VALID,0,